STARLINK-34574, 64714

Orbit data source: Space-Track

STARLINK-34574, 64714 is a payload satellite owned by SpaceX/Seattle (US) in LEO that was launched on Sat, 28 Jun 2025 UTC via an FALCON 9 launch vehicle from the Air Force Western Test Range (AFWTR). Payload-class satellites include a variety of spacecraft equipped with specific instruments for various scientific and technological missions. These include communications satellites like Starlink; space stations such as the ISS; scientific satellites like the Hubble; Earth observation satellites from companies like Planet Labs, Umbra, and HawkEye 360; GPS; miniature CubeSats for education and research; and military/defense satellites.

Not visible in the next 10 days
Identifier
64714, 2025-142U
Orbit
LEO
Last TLE update
9 hours ago
Origin
Manufacturer
SpaceX/Seattle
Mission
Operational spacecraft
Bus & Motor
STARLINK V2MO, Unknown motor
Mass
575 kg wet, ~530 kg dry
Launch date (UTC)
2025-06-28 (1 week ago)
Launch vehicle
FALCON 9
Launch site
Air Force Western Test Range (AFWTR)
Object type
Payload
Rocket body
Debris
Shape & HBR
Unknown
Radar Cross Section
RCS unknown

Expand to show TLE details & history

TLE from 9 hours ago
0 STARLINK-34574
1 64714U 25142U   25186.58335648 -.01260412  00000-0 -49638-2 0  9990
2 64714  69.9944 231.3079 0003891 277.2516  72.9120 15.88988294  2130
Epoch: 2025-07-05T14:00Z
TLE epoch observation values (Epoch: 2025-07-05T14:00:01.999Z)
Latitude
-9.3689°
Longitude
94.0559°
Altitude
308.562 km
Speed
7.723 km/s
True Right ascension
15h 11m 32s
True Declination
-9° 18' 36"
Sunlit
Object was in full shadow at epoch
Visualization orbit readout
Latitude
-52.10447°
Longitude
-55.83586°
Altitude
325.716 km
Speed
7.713 km/s
Apparent Right ascension
01h 28m 33s
Apparent Declination
-58° 01' 44"
Sunlit
Object is in daylight
Visualization observer readout
Local Sidereal Time
10:31:47
Azimuth
222.201° SW
Elevation
-56.671°
Doppler factor
1
Orbital elements
Apogee altitude
305.584 km
Perigee altitude
300.385 km
Semi-major axis
6,681.122 km
Eccentricity
0.00039
Inclination
69.9944°
RAAN
231.3079°
Arg. of periapsis
277.2516°
True anomaly
Unknown
Mean anomaly
72.912°
Eccentric anomaly
Unknown
Mean motion
3.97438 °/min
Orbital period
90.58 mins
BSTAR
-0.0049638
Loading maneuver chart data...
Loading SW <> Apogee altitude chart data...
Loading historical data...
Loading historical data...
Loading historical data...
Loading historical data...
Loading historical data...
Loading historical data...
Loading historical data...

STARLINK-34574 Visibility

Observer location: undefined°, undefined°

STARLINK-34574 is likely not visible in the next few days
Span
Click to sort rows by Start time (UTC) header in descending order
Start Az.
Max El. time (UTC)
Max El. Az.
Max El.
End time (UTC)
End Az.
|